Wind_Speed
10 11 13 15 16 17 18 19 18 18 18 18 19 19 18 17 16 17 17 16 16 15 15 15 15 15 15 16 16 17 17 18 18 18 19 20 21 21 22 23 24 24 24
8 10 11 13 14 15 16 17 17 18 18 18 18 18 18 17 17 17 17 17 17 17 17 17 18 18 19 19 19 19 20 21 21 22 22 23 24 25 26 26 26 27 27
5 7 10 11 12 13 15 16 17 17 18 18 17 17 17 17 17 17 18 19 18 19 19 20 21 22 22 22 22 22 23 24 25 25 26 26 26 28 28 29 29 30 30
5 7 10 11 12 13 14 15 17 17 18 18 17 17 16 17 18 18 19 20 20 21 22 23 24 24 24 24 25 26 26 27 28 29 29 29 29 30 31 32 32 32 32
5 6 8 10 11 11 12 13 16 16 16 17 17 17 18 18 19 20 21 21 22 23 23 24 25 26 26 27 27 28 30 30 31 31 31 31 31 33 33 33 34 34 34
5 7 8 9 11 12 12 13 15 16 17 17 17 18 19 19 20 21 21 21 22 24 25 26 27 28 29 29 30 31 32 33 33 34 33 34 35 36 36 36 36 37 36
9 9 10 11 12 13 14 14 15 16 17 17 17 18 18 19 20 21 22 23 24 25 26 28 29 30 31 32 33 34 35 36 37 37 37 37 38 38 39 39 39 40 40
12 12 11 12 13 15 16 16 17 17 18 18 18 19 20 21 22 23 24 25 26 27 28 29 31 32 33 34 35 36 37 38 38 39 40 41 42 42 42 42 43 43 43
14 14 14 14 15 16 17 17 18 19 20 21 22 22 23 23 24 25 26 27 28 30 31 32 33 34 35 36 37 38 39 40 41 43 43 44 44 44 45 45 46 46 46
16 16 16 17 17 18 19 18 20 21 22 23 24 25 25 26 27 28 29 30 30 32 33 34 36 36 38 39 40 41 41 42 44 45 46 46 46 47 48 48 49 49 49
17 18 18 19 19 19 20 21 21 22 23 25 26 26 27 28 29 30 31 32 34 35 36 37 38 39 39 40 42 43 44 45 46 47 47 48 48 48 48 49 50 51 51
20 20 20 20 20 21 21 21 22 23 24 25 26 28 29 30 31 32 34 35 36 37 38 39 40 40 40 42 44 45 47 48 48 49 50 50 50 50 51 51 52 52 52
22 22 21 22 23 23 23 24 25 26 26 28 29 30 31 32 33 34 36 37 38 39 40 41 41 42 42 44 46 46 48 48 49 49 49 49 50 51 52 52 53 52 52
24 24 24 24 24 25 25 26 28 28 29 29 30 31 32 33 35 35 36 37 38 40 40 41 42 43 43 44 45 45 47 48 48 48 49 49 50 50 51 52 52 52 52
26 27 27 26 26 27 27 27 28 29 30 30 31 32 33 34 35 36 37 37 38 40 41 42 43 43 45 45 46 46 46 47 47 48 49 50 51 51 51 52 52 52 52
25 26 27 27 28 29 29 29 30 30 30 30 32 32 33 35 37 37 38 39 41 41 42 43 44 44 45 46 46 47 47 48 48 50 51 51 51 51 51 51 51 51 50
26 27 27 28 29 30 30 30 30 31 32 33 33 33 33 34 36 37 38 40 41 42 43 43 44 45 46 46 47 47 47 48 50 50 51 51 52 52 51 52 52 50 50
26 26 27 28 28 29 29 30 31 31 31 32 32 33 34 35 36 37 38 40 41 41 43 43 44 45 45 46 47 48 49 49 50 51 52 52 52 52 51 50 49 49 49
23 23 23 24 25 25 26 27 27 28 30 31 32 33 35 36 38 39 39 40 41 42 43 44 45 45 46 46 47 48 49 50 50 50 50 50 50 50 49 48 48 48 48
19 20 20 21 22 24 25 27 28 29 30 32 33 35 37 38 39 40 41 42 43 43 44 44 45 46 46 47 47 47 48 47 47 48 48 47 47 47 46 46 46 46 46
19 20 21 22 23 25 26 28 30 32 34 35 36 37 38 40 41 42 43 43 44 44 45 45 45 45 45 46 46 45 45 45 45 44 44 44 43 43 42 42 42 42 42
19 20 22 24 26 28 29 31 33 34 36 37 38 39 40 41 43 43 44 44 44 44 44 43 44 44 44 44 44 44 43 43 42 42 41 41 40 39 39 39 39 39 39
22 23 25 27 29 30 32 34 35 36 38 39 40 42 42 42 42 42 42 42 42 42 41 41 42 42 42 42 41 41 40 39 39 38 38 38 37 36 36 36 36 36 35
25 27 29 30 31 32 34 35 37 38 39 40 40 41 41 40 40 39 39 40 40 40 40 40 40 39 39 38 38 37 36 35 35 35 34 34 34 33 32 32 31 31 30
27 29 30 32 33 34 35 36 37 38 38 38 38 38 38 38 38 38 38 38 38 38 38 38 37 37 36 36 35 34 33 32 32 32 32 32 31 30 29 28 28 27 27
29 31 32 33 34 35 35 36 36 37 36 36 36 36 36 36 36 36 36 36 37 37 36 36 35 35 34 34 33 32 32 31 31 30 30 30 29 28 27 26 25 25 24
Wind_Direction
234 222 214 214 214 213 211 213 216 217 218 220 222 224 225 227 230 232 233 235 237 239 241 245 251 257 263 269 274 279 283 286 288 288 288 289 290 292 293 293 293 294 295
228 215 212 213 210 211 211 212 216 217 218 222 225 226 227 229 232 234 235 237 239 243 245 249 256 261 265 269 274 278 282 284 287 288 289 288 289 291 292 293 292 292 292
219 210 206 207 212 215 215 215 217 220 223 226 226 228 230 232 236 238 238 240 244 249 253 257 261 265 268 271 274 277 281 284 286 287 288 288 288 290 291 292 292 292 292
220 218 216 217 220 220 219 220 222 224 226 228 228 231 236 239 240 242 244 246 251 255 259 262 265 269 271 274 276 279 281 284 286 287 287 288 288 289 290 290 291 292 292
226 222 218 216 216 217 220 223 225 225 228 231 233 236 242 244 247 249 251 254 256 259 262 265 268 271 272 275 278 280 282 284 286 286 286 287 288 289 289 288 289 290 291
244 233 226 222 219 223 227 230 230 231 234 236 240 243 246 248 251 253 255 259 262 264 266 268 271 274 276 277 279 281 282 284 285 286 286 286 287 288 289 289 289 289 289
253 248 239 235 233 233 237 238 238 238 240 243 247 249 252 256 257 258 261 264 266 268 271 272 272 275 276 278 280 281 283 284 285 285 286 287 288 288 289 290 290 290 290
251 249 248 246 242 241 244 246 245 246 247 248 251 254 256 259 261 263 265 267 270 271 274 275 276 278 279 280 280 281 283 284 285 285 286 287 287 288 289 289 290 290 290
254 252 254 255 252 249 250 251 250 250 252 253 255 257 258 260 263 266 269 271 272 274 276 278 279 280 281 282 282 283 283 284 284 285 286 287 286 287 288 288 288 288 287
256 258 259 262 262 257 255 254 253 253 255 256 258 260 261 263 266 269 271 273 275 276 278 279 280 280 281 282 283 284 284 284 284 285 285 286 286 286 287 288 288 288 287
259 260 262 264 265 265 261 257 259 260 260 260 262 263 264 266 268 270 272 275 277 278 279 281 281 282 282 282 283 283 284 284 285 285 285 285 285 285 285 287 287 287 287
261 260 262 265 268 268 265 265 264 265 264 265 265 266 268 270 271 273 275 277 279 280 281 282 282 282 282 283 285 285 285 286 286 286 286 285 285 285 285 286 287 287 286
263 263 262 266 269 269 269 269 269 268 268 269 269 271 272 273 274 276 278 278 280 281 283 282 282 283 284 285 286 286 287 287 287 287 287 287 287 287 286 286 287 287 287
263 264 265 267 270 273 273 271 271 273 273 273 272 272 273 274 275 277 279 280 282 283 283 285 285 286 288 289 289 289 288 288 288 288 288 288 288 287 287 287 287 287 287
264 265 266 268 271 272 273 275 274 275 275 275 275 275 275 276 276 277 280 282 283 285 286 287 288 288 290 290 290 290 290 290 290 290 290 290 289 288 287 287 287 287 287
266 266 266 269 271 271 272 274 275 276 277 279 278 278 278 281 282 282 283 284 285 286 288 289 290 290 291 290 290 290 291 292 292 291 291 291 290 289 288 287 287 287 286
267 269 269 270 272 273 274 275 277 279 280 282 282 282 283 284 285 286 287 288 289 289 290 291 291 291 291 291 291 292 293 294 293 293 292 291 290 289 288 288 288 287 287
266 268 270 272 274 275 277 279 280 280 281 282 284 285 286 287 288 289 290 292 292 293 293 293 293 294 293 294 294 294 294 293 293 292 291 290 288 288 288 288 288 287 287
268 269 272 275 279 282 284 286 286 286 286 288 289 290 290 291 293 293 294 294 294 295 295 295 295 295 295 295 295 294 294 294 294 293 292 290 289 289 288 288 288 288 288
276 278 280 283 284 286 288 290 290 291 292 292 293 294 294 294 295 295 295 295 296 296 296 296 296 296 296 296 296 295 295 295 295 294 293 292 291 291 290 289 288 289 289
279 281 283 286 288 289 291 293 294 294 295 296 295 295 295 296 296 296 297 297 297 298 298 298 297 297 298 297 297 297 297 297 296 295 295 295 294 293 292 291 290 290 290
286 288 289 291 293 294 295 296 296 296 298 298 297 298 298 298 298 299 299 298 298 298 297 297 297 298 298 298 297 297 297 297 297 297 298 298 297 295 294 294 294 293 293
293 293 294 295 296 296 297 297 298 299 299 299 299 299 299 299 299 298 298 298 298 298 298 298 299 299 299 299 299 299 298 299 299 299 300 300 299 298 297 297 296 296 295
298 298 299 299 298 298 299 299 300 300 300 300 300 299 299 298 298 298 299 299 299 299 300 300 301 301 301 301 301 300 299 299 300 300 301 301 301 300 300 300 301 301 300
302 302 302 301 301 301 301 301 301 301 300 299 299 298 298 298 299 299 300 301 301 301 300 301 301 300 301 301 300 299 299 300 300 301 302 303 303 303 302 303 303 304 304
303 303 303 302 303 303 303 302 301 301 300 299 299 298 299 300 300 301 301 302 303 303 302 301 301 300 300 300 299 299 299 301 301 301 302 303 304 304 303 304 305 306 307
Height
5817 5819 5821 5824 5827 5830 5833 5837 5840 5843 5846 5849 5851 5854 5856 5858 5860 5863 5865 5867 5869 5870 5872 5873 5874 5875 5875 5876 5876 5876 5876 5876 5876 5875 5875 5874 5874 5873 5873 5872 5871 5870 5869
5816 5818 5820 5823 5825 5828 5831 5835 5838 5841 5844 5846 5848 5851 5853 5855 5857 5859 5861 5863 5865 5867 5868 5869 5870 5870 5871 5871 5871 5872 5871 5871 5871 5870 5870 5869 5868 5867 5866 5865 5864 5863 5862
5816 5817 5819 5822 5825 5827 5830 5833 5836 5839 5841 5843 5846 5848 5850 5852 5854 5856 5858 5860 5861 5862 5864 5865 5865 5866 5866 5866 5866 5866 5866 5865 5865 5864 5863 5863 5862 5861 5860 5858 5857 5856 5854
5816 5817 5819 5821 5823 5826 5829 5831 5834 5836 5839 5841 5843 5845 5847 5849 5850 5852 5854 5855 5857 5858 5859 5860 5860 5860 5860 5860 5860 5860 5859 5859 5858 5857 5856 5855 5855 5853 5852 5851 5849 5848 5846
5816 5817 5818 5820 5822 5824 5826 5828 5831 5833 5835 5838 5840 5841 5843 5845 5846 5848 5849 5850 5851 5852 5853 5854 5854 5854 5854 5854 5854 5853 5853 5852 5851 5850 5849 5848 5846 5845 5843 5842 5841 5839 5838
5815 5816 5817 5819 5820 5822 5824 5826 5828 5830 5832 5834 5836 5837 5839 5840 5842 5843 5844 5845 5846 5847 5847 5847 5847 5847 5847 5847 5846 5846 5845 5844 5842 5841 5840 5839 5837 5835 5834 5832 5831 5829 5828
5814 5815 5816 5817 5818 5820 5822 5824 5825 5827 5829 5830 5832 5833 5835 5836 5837 5838 5839 5840 5840 5841 5840 5840 5840 5840 5840 5839 5838 5837 5836 5835 5833 5832 5831 5829 5827 5825 5823 5822 5820 5818 5817
5812 5813 5814 5814 5815 5817 5818 5820 5822 5823 5825 5826 5828 5829 5830 5831 5832 5832 5833 5833 5834 5834 5833 5833 5832 5831 5831 5830 5829 5828 5827 5825 5823 5822 5821 5819 5817 5815 5812 5811 5809 5807 5805
5808 5809 5810 5811 5812 5813 5814 5815 5817 5818 5820 5821 5822 5823 5824 5825 5825 5826 5826 5826 5826 5826 5825 5824 5824 5823 5822 5820 5819 5818 5817 5816 5813 5811 5810 5808 5805 5803 5800 5798 5796 5794 5793
5804 5805 5806 5807 5808 5809 5809 5810 5811 5812 5814 5815 5816 5817 5817 5818 5818 5818 5818 5818 5818 5817 5816 5815 5814 5813 5812 5810 5809 5807 5806 5804 5801 5800 5798 5796 5793 5790 5787 5785 5782 5780 5778
5800 5801 5802 5802 5802 5803 5804 5805 5806 5806 5807 5808 5809 5810 5810 5810 5810 5810 5809 5809 5808 5808 5807 5806 5804 5803 5801 5799 5797 5795 5793 5791 5789 5787 5784 5782 5780 5777 5774 5771 5768 5766 5763
5796 5796 5797 5797 5797 5798 5799 5799 5800 5800 5801 5801 5801 5802 5802 5802 5802 5801 5800 5800 5799 5798 5796 5795 5793 5792 5790 5788 5785 5783 5780 5778 5775 5773 5770 5768 5765 5763 5760 5757 5754 5751 5748
5790 5791 5791 5792 5792 5792 5793 5794 5794 5794 5794 5794 5794 5794 5794 5793 5793 5792 5791 5790 5788 5787 5786 5783 5781 5779 5777 5775 5773 5770 5767 5764 5761 5758 5755 5753 5750 5747 5744 5741 5738 5735 5732
5784 5785 5785 5786 5786 5786 5787 5787 5787 5787 5786 5786 5785 5785 5785 5785 5784 5783 5781 5780 5778 5777 5774 5772 5770 5767 5765 5762 5759 5756 5753 5750 5747 5744 5741 5738 5735 5731 5728 5725 5722 5719 5716
5777 5778 5778 5779 5779 5780 5779 5779 5779 5779 5779 5778 5777 5776 5775 5775 5774 5773 5771 5770 5768 5766 5763 5761 5758 5755 5752 5749 5746 5743 5740 5736 5733 5730 5726 5723 5719 5716 5712 5709 5705 5702 5699
5770 5771 5771 5772 5772 5772 5772 5772 5771 5771 5771 5769 5768 5767 5765 5765 5764 5762 5760 5758 5756 5753 5751 5748 5745 5742 5739 5736 5733 5729 5726 5722 5719 5715 5711 5708 5704 5700 5697 5693 5689 5686 5682
5763 5764 5764 5765 5765 5765 5765 5764 5764 5763 5762 5761 5760 5758 5756 5755 5753 5751 5749 5746 5744 5741 5738 5735 5732 5729 5725 5722 5718 5715 5711 5708 5704 5700 5696 5692 5688 5684 5680 5676 5673 5669 5666
5756 5757 5757 5757 5757 5757 5756 5756 5755 5754 5753 5751 5750 5748 5747 5745 5743 5740 5738 5735 5732 5729 5725 5722 5719 5715 5711 5708 5704 5701 5697 5693 5689 5684 5680 5676 5672 5668 5664 5660 5657 5653 5650
5750 5751 5751 5751 5750 5749 5748 5747 5746 5745 5743 5742 5741 5739 5737 5735 5732 5729 5726 5723 5720 5717 5713 5709 5705 5701 5698 5694 5690 5686 5681 5677 5673 5668 5664 5659 5655 5652 5648 5645 5641 5638 5634
5745 5745 5745 5744 5744 5743 5742 5740 5739 5737 5735 5733 5731 5728 5726 5723 5721 5718 5714 5711 5707 5704 5700 5696 5692 5688 5684 5680 5675 5671 5667 5662 5658 5654 5649 5645 5641 5637 5633 5629 5626 5622 5619
5739 5739 5739 5738 5737 5736 5734 5732 5730 5728 5726 5723 5721 5718 5714 5711 5708 5705 5702 5698 5694 5690 5686 5682 5678 5674 5670 5666 5661 5657 5653 5648 5644 5640 5635 5631 5627 5623 5619 5615 5612 5608 5605
5734 5733 5732 5731 5730 5728 5725 5723 5721 5718 5715 5712 5709 5706 5702 5699 5695 5692 5688 5684 5681 5677 5673 5669 5665 5660 5656 5652 5648 5644 5640 5635 5631 5627 5622 5618 5614 5610 5607 5603 5599 5596 5592
5727 5726 5725 5723 5721 5718 5716 5713 5711 5707 5704 5701 5697 5694 5690 5687 5683 5679 5675 5671 5667 5663 5659 5656 5652 5647 5643 5639 5635 5631 5627 5623 5619 5615 5611 5607 5603 5599 5595 5592 5588 5584 5581
5720 5718 5716 5713 5711 5708 5706 5703 5699 5696 5693 5689 5685 5682 5678 5674 5671 5667 5663 5659 5655 5651 5647 5643 5639 5635 5631 5628 5624 5620 5616 5612 5608 5604 5600 5596 5593 5589 5585 5582 5578 5574 5571
5712 5709 5707 5704 5701 5698 5695 5692 5688 5685 5681 5678 5674 5670 5666 5663 5659 5655 5652 5648 5644 5640 5636 5632 5628 5624 5621 5617 5613 5609 5605 5602 5598 5595 5591 5588 5584 5580 5577 5574 5570 5567 5563
5704 5701 5698 5695 5691 5688 5685 5681 5678 5674 5670 5667 5663 5659 5655 5652 5648 5644 5641 5637 5633 5629 5625 5621 5617 5614 5610 5607 5603 5599 5596 5593 5589 5586 5583 5579 5576 5573 5570 5566 5563 5560 5557